FW4331 Weather Reports


time (UTC)temp
C
wind
direction
speed
KPH
gust
KPH
rain 1hr
cm
rain 24hr
cm
rain mn
cm
humidity
%
barometer
mb
20260507050054 13 93 1.6 8.0 0.08 0.69 0.08 56 1008.8
20260507044553 13 69 4.8 11.3 0.08 0.66 0.05 58 1009.1
20260507043039 14 19 3.2 14.5 0.05 0.64 0.03 57 1008.8
20260507041534 15 72 0.0 8.0 0.05 0.64 0.03 58 1009.7
20260507040036 15 8 1.6 11.3 0.03 0.61 0.00 59 1009.5
20260507034527 16 298 3.2 14.5 0.00 0.58 0.58 57 1008.6
20260507033024 16 21 4.8 9.7 0.00 0.58 0.58 55 1008.7
20260507031523 16 15 8.0 22.5 0.00 0.58 0.58 54 1008.6
20260507030023 17 36 3.2 17.7 0.00 0.58 0.58 53 1008.9
20260507024518 17 51 6.4 19.3 0.00 0.58 0.58 53 1008.1
20260507023016 17 14 1.6 19.3 0.00 0.58 0.58 53 1008.2
20260507021513 17 46 4.8 16.1 0.00 0.58 0.58 54 1008.1
20260507020013 17 31 4.8 14.5 0.00 0.58 0.58 54 1007.6
20260507014509 18 46 0.0 9.7 0.00 0.58 0.58 54 1007.4
20260507013007 18 49 3.2 12.9 0.00 0.58 0.58 55 1007.6
20260507011504 18 359 3.2 12.9 0.00 0.58 0.58 55 1007.7
20260507010001 18 34 3.2 11.3 0.00 0.58 0.58 57 1008.1
20260507004559 19 20 0.0 1.6 0.00 0.58 0.58 57 1007.6
20260507003056 19 342 0.0 1.6 0.00 0.58 0.58 58 1007.5
20260507001602 20 352 0.0 1.6 0.00 0.58 0.58 58 1007.3
20260507000118 20 14 0.0 6.4 0.00 0.58 0.58 58 1007.2
20260506234607 20 338 0.0 0.0 0.00 0.58 0.58 58 1006.9
20260506233050 20 286 0.0 1.6 0.00 0.58 0.58 56 1006.6
20260506231544 20 238 0.0 4.8 0.00 0.58 0.58 55 1006.5
20260506230041 21 236 0.0 6.4 0.00 0.58 0.58 54 1006.4
20260506224538 21 238 1.6 12.9 0.00 0.58 0.58 54 1006.4
20260506223033 21 259 3.2 9.7 0.00 0.58 0.58 54 1006.3
20260506221530 21 266 3.2 12.9 0.00 0.58 0.58 53 1006.4
20260506220025 21 231 1.6 12.9 0.00 0.58 0.58 53 1006.4
20260506214523 21 230 6.4 16.1 0.00 0.58 0.58 53 1006.5
20260506213022 21 214 4.8 16.1 0.00 0.58 0.58 53 1006.5
20260506211536 21 252 6.4 20.9 0.00 0.58 0.58 53 1006.4
20260506210031 21 236 9.7 17.7 0.00 0.58 0.58 53 1006.4
20260506204522 20 261 6.4 16.1 0.00 0.58 0.58 54 1006.3
20260506203016 21 222 8.0 17.7 0.00 0.58 0.58 53 1005.9
20260506201614 20 321 12.9 24.1 0.00 0.58 0.58 52 1006.2
20260506200012 20 217 4.8 14.5 0.00 0.58 0.58 53 1006.3
20260506194507 20 264 6.4 16.1 0.00 0.58 0.58 53 1006.4
20260506193004 20 263 8.0 19.3 0.00 0.58 0.58 52 1006.4
20260506191501 20 277 4.8 14.5 0.00 0.58 0.58 52 1006.6
20260506190058 19 239 8.0 19.3 0.00 0.58 0.58 53 1007.0
20260506184559 19 214 6.4 19.3 0.00 0.58 0.58 52 1007.1
20260506183101 18 280 6.4 19.3 0.00 0.58 0.58 53 1007.2
20260506181603 18 233 3.2 19.3 0.00 0.58 0.58 52 1007.1
20260506180049 18 207 3.2 12.9 0.00 0.58 0.58 51 1007.3
20260506174545 18 238 4.8 12.9 0.00 0.58 0.58 51 1007.5
20260506173111 17 249 4.8 22.5 0.00 0.58 0.58 51 1007.5
20260506171544 17 165 9.7 24.1 0.00 0.58 0.58 51 1007.5
20260506170052 17 249 16.1 25.7 0.00 0.58 0.58 51 1007.4
20260506164538 17 216 8.0 27.4 0.00 0.58 0.58 51 1007.5
20260506163043 17 190 11.3 20.9 0.00 0.58 0.58 50 1007.6
20260506161532 17 248 12.9 20.9 0.00 0.58 0.58 47 1007.8
20260506160034 16 264 8.0 19.3 0.00 0.58 0.58 45 1007.7
20260506154527 16 153 8.0 19.3 0.00 0.58 0.58 43 1007.8
20260506153026 16 214 12.9 25.7 0.03 0.58 0.58 40 1007.7
20260506151524 16 244 8.0 19.3 0.13 0.58 0.58 40 1008.1
20260506150022 15 204 9.7 16.1 0.15 0.58 0.58 40 1007.9
20260506144518 15 207 9.7 19.3 0.15 0.58 0.58 40 1008.1
20260506143023 15 210 3.2 16.1 0.18 0.56 0.56 40 1008.3
20260506141513 15 221 4.8 17.7 0.15 0.46 0.46 40 1008.4
20260506140017 15 217 3.2 11.3 0.20 0.43 0.43 41 1008.4
20260506134507 15 240 1.6 12.9 0.36 0.43 0.43 41 1008.5
20260506133005 15 248 3.2 12.9 0.36 0.38 0.38 42 1008.2
20260506131600 15 200 4.8 14.5 0.30 0.33 0.33 45 1008.6
20260506130120 15 217 4.8 14.5 0.20 0.23 0.23 50 1008.8
20260506124551 15 164 3.2 9.7 0.08 0.08 0.08 53 1008.9
20260506123048 16 256 0.0 6.4 0.03 0.03 0.03 56 1008.2
20260506121543 16 253 1.6 11.3 0.03 0.03 0.03 60 1008.2
20260506120038 16 210 1.6 11.3 0.03 0.03 0.03 61 1008.1
20260506114539 -17 0.0 0.0 0.00 0.00 0.00 1008.5
20260506113027 -17 0.0 0.0 0.00 0.00 0.00 1008.4
20260506111522 -17 0.0 0.0 0.00 0.00 0.00 1008.1
20260506110017 -17 0.0 0.0 0.00 0.00 0.00 1007.8
20260506104527 -17 0.0 0.0 0.00 0.00 0.00 1007.8
20260506103007 -17 0.0 0.0 0.00 0.00 0.00 1007.4
20260506101601 17 219 3.2 12.9 0.00 0.00 0.00 56 1007.6
20260506100057 18 222 3.2 12.9 0.00 0.00 0.00 55 1007.5
20260506094555 18 209 4.8 17.7 0.00 0.00 0.00 54 1007.5
20260506093051 18 204 3.2 16.1 0.00 0.00 0.00 54 1007.7
20260506091547 18 235 11.3 20.9 0.00 0.00 0.00 53 1007.6
20260506090047 18 249 9.7 22.5 0.00 0.00 0.00 53 1007.9
20260506084539 18 266 4.8 17.7 0.00 0.00 0.00 52 1008.1
20260506083041 18 200 3.2 27.4 0.00 0.00 0.00 52 1008.1
20260506081533 19 243 8.0 19.3 0.00 0.00 0.00 51 1008.0
20260506073020 19 266 3.2 19.3 0.00 0.00 0.00 49 1007.9
20260506071520 19 231 8.0 19.3 0.00 0.00 0.00 49 1007.9
20260506061601 20 150 1.6 20.9 0.00 0.00 0.00 46 1008.6